owner,sensor,date,latitude,longitude,vertical_datum,direction_of_sea_water_velocity,sea_water_speed,upward_sea_water_velocity,qcFlag 
TABS,ioos:station:wmo:42051:1,2009-03-01T00:00:00Z,29.6350,-93.6417,2.0,232.3036652,35.09564788,-99999.0,'11111222,11111222,99999999' 
TABS,ioos:station:wmo:42051:1,2009-03-01T00:30:00Z,29.6350,-93.6417,2.0,230.0614146,38.14869067,-99999.0,'11111222,11111222,99999999' 
TABS,ioos:station:wmo:42051:1,2009-03-01T01:00:00Z,29.6350,-93.6417,2.0,231.5398452,36.69012537,-99999.0,'11111222,11111222,99999999' 
TABS,ioos:station:wmo:42051:1,2009-03-01T01:30:00Z,29.6350,-93.6417,2.0,230.1438735,36.51357145,-99999.0,'11111222,11111222,99999999' 
TABS,ioos:station:wmo:42051:1,2009-03-01T02:00:00Z,29.6350,-93.6417,2.0,217.1802027,26.19438489,-99999.0,'11111222,11111222,99999999' 
TABS,ioos:station:wmo:42051:1,2009-03-01T02:30:00Z,29.6350,-93.6417,2.0,210.7058145,21.73766547,-99999.0,'11111222,11111222,99999999' 
TABS,ioos:station:wmo:42051:1,2009-03-01T03:00:00Z,29.6350,-93.6417,2.0,207.0412908,20.43389586,-99999.0,'11111222,11111222,99999999' 
TABS,ioos:station:wmo:42051:1,2009-03-01T03:30:00Z,29.6350,-93.6417,2.0,210.7724889,17.49295287,-99999.0,'11111222,11111222,99999999' 
TABS,ioos:station:wmo:42051:1,2009-03-01T04:00:00Z,29.6350,-93.6417,2.0,208.1835725,20.58003887,-99999.0,'11111222,11111222,99999999' 
TABS,ioos:station:wmo:42051:1,2009-03-01T04:30:00Z,29.6350,-93.6417,2.0,221.8306187,12.53495911,-99999.0,'11111222,11111222,99999999' 
TABS,ioos:station:wmo:42051:1,2009-03-01T05:00:00Z,29.6350,-93.6417,2.0,235.0678539,8.574905247,-99999.0,'11133222,11111222,99999999' 
TABS,ioos:station:wmo:42051:1,2009-03-01T05:30:00Z,29.6350,-93.6417,2.0,237.6686867,7.834570824,-99999.0,'11133222,11111222,99999999' 
TABS,ioos:station:wmo:42051:1,2009-03-01T06:00:00Z,29.6350,-93.6417,2.0,236.7837971,9.383075189,-99999.0,'11133222,11111222,99999999' 
TABS,ioos:station:wmo:42051:1,2009-03-01T06:30:00Z,29.6350,-93.6417,2.0,237.7690363,5.662552428,-99999.0,'11133222,11111222,99999999' 
TABS,ioos:station:wmo:42051:1,2009-03-01T07:00:00Z,29.6350,-93.6417,2.0,347.9434761,5.266165588,-99999.0,'11133222,11111222,99999999' 
TABS,ioos:station:wmo:42051:1,2009-03-01T07:30:00Z,29.6350,-93.6417,2.0,11.07211323,7.081814739,-99999.0,'11133222,11111222,99999999' 
TABS,ioos:station:wmo:42051:1,2009-03-01T08:00:00Z,29.6350,-93.6417,2.0,20.8854893,14.86681203,-99999.0,'11111222,11111222,99999999' 
TABS,ioos:station:wmo:42051:1,2009-03-01T08:30:00Z,29.6350,-93.6417,2.0,34.78118868,20.24745416,-99999.0,'11111222,11111222,99999999' 
TABS,ioos:station:wmo:42051:1,2009-03-01T09:00:00Z,29.6350,-93.6417,2.0,38.31581446,21.32278828,-99999.0,'11111222,11111222,99999999' 
TABS,ioos:station:wmo:42051:1,2009-03-01T09:30:00Z,29.6350,-93.6417,2.0,48.21653704,19.02993694,-99999.0,'11111222,11111222,99999999' 
TABS,ioos:station:wmo:42051:1,2009-03-01T10:00:00Z,29.6350,-93.6417,2.0,55.54349077,15.34160683,-99999.0,'11111222,11111222,99999999' 
TABS,ioos:station:wmo:42051:1,2009-03-01T10:30:00Z,29.6350,-93.6417,2.0,67.31664969,11.09846836,-99999.0,'11111222,11111222,99999999' 
TABS,ioos:station:wmo:42051:1,2009-03-01T11:00:00Z,29.6350,-93.6417,2.0,115.3728093,8.167888344,-99999.0,'11133222,11111222,99999999' 
TABS,ioos:station:wmo:42051:1,2009-03-01T11:30:00Z,29.6350,-93.6417,2.0,36.35005299,10.57843561,-99999.0,'11111222,11111222,99999999' 
TABS,ioos:station:wmo:42051:1,2009-03-01T12:00:00Z,29.6350,-93.6417,2.0,82.72874499,9.718153117,-99999.0,'11133222,11111222,99999999' 
TABS,ioos:station:wmo:42051:1,2009-03-01T12:30:00Z,29.6350,-93.6417,2.0,83.67930808,12.98895685,-99999.0,'11111222,11111222,99999999' 
TABS,ioos:station:wmo:42051:1,2009-03-01T13:00:00Z,29.6350,-93.6417,2.0,78.73417432,12.74559139,-99999.0,'11111222,11111222,99999999' 
TABS,ioos:station:wmo:42051:1,2009-03-01T13:30:00Z,29.6350,-93.6417,2.0,79.79677136,15.63729516,-99999.0,'11111222,11111222,99999999' 
TABS,ioos:station:wmo:42051:1,2009-03-01T14:00:00Z,29.6350,-93.6417,2.0,78.94494555,14.55,-99999.0,'11111222,11111222,99999999' 
TABS,ioos:station:wmo:42051:1,2009-03-01T14:30:00Z,29.6350,-93.6417,2.0,92.42260179,18.21628118,-99999.0,'11111222,11111222,99999999' 
TABS,ioos:station:wmo:42051:1,2009-03-01T15:00:00Z,29.6350,-93.6417,2.0,81.33736209,18.25828579,-99999.0,'11111222,11111222,99999999' 
TABS,ioos:station:wmo:42051:1,2009-03-01T15:30:00Z,29.6350,-93.6417,2.0,104.8057547,19.68354135,-99999.0,'11111222,11111222,99999999' 
TABS,ioos:station:wmo:42051:1,2009-03-01T16:00:00Z,29.6350,-93.6417,2.0,97.26080768,23.02463246,-99999.0,'11111222,11111222,99999999' 
TABS,ioos:station:wmo:42051:1,2009-03-01T16:30:00Z,29.6350,-93.6417,2.0,90.69596493,23.05170059,-99999.0,'11111222,11111222,99999999' 
TABS,ioos:station:wmo:42051:1,2009-03-01T17:00:00Z,29.6350,-93.6417,2.0,93.92702074,24.96862431,-99999.0,'11111222,11111222,99999999' 
TABS,ioos:station:wmo:42051:1,2009-03-01T17:30:00Z,29.6350,-93.6417,2.0,95.83824945,26.34666013,-99999.0,'11111222,11111222,99999999' 
TABS,ioos:station:wmo:42051:1,2009-03-01T18:00:00Z,29.6350,-93.6417,2.0,86.33774469,27.8669069,-99999.0,'11111222,11111222,99999999' 
TABS,ioos:station:wmo:42051:1,2009-03-01T18:30:00Z,29.6350,-93.6417,2.0,88.42302833,24.70935855,-99999.0,'11111222,11111222,99999999' 
TABS,ioos:station:wmo:42051:1,2009-03-01T19:00:00Z,29.6350,-93.6417,2.0,90.39417669,24.71058478,-99999.0,'11111222,11111222,99999999' 
TABS,ioos:station:wmo:42051:1,2009-03-01T19:30:00Z,29.6350,-93.6417,2.0,87.22196168,24.75909732,-99999.0,'11111222,11111222,99999999' 
TABS,ioos:station:wmo:42051:1,2009-03-01T20:00:00Z,29.6350,-93.6417,2.0,97.64413614,22.17708051,-99999.0,'11111222,11111222,99999999' 
TABS,ioos:station:wmo:42051:1,2009-03-01T20:30:00Z,29.6350,-93.6417,2.0,125.9548171,22.66889058,-99999.0,'11111222,11111222,99999999' 
TABS,ioos:station:wmo:42051:1,2009-03-01T21:00:00Z,29.6350,-93.6417,2.0,119.017599,18.0795188,-99999.0,'11111222,11111222,99999999' 
TABS,ioos:station:wmo:42051:1,2009-03-01T21:30:00Z,29.6350,-93.6417,2.0,133.0249654,24.62194143,-99999.0,'11111222,11111222,99999999' 
TABS,ioos:station:wmo:42051:1,2009-03-01T22:00:00Z,29.6350,-93.6417,2.0,129.2874903,22.09366651,-99999.0,'11111222,11111222,99999999' 
TABS,ioos:station:wmo:42051:1,2009-03-01T22:30:00Z,29.6350,-93.6417,2.0,125.2218614,18.98585263,-99999.0,'11111222,11111222,99999999' 
TABS,ioos:station:wmo:42051:1,2009-03-01T23:00:00Z,29.6350,-93.6417,2.0,134.1979255,20.71318662,-99999.0,'11111222,11111222,99999999' 
TABS,ioos:station:wmo:42051:1,2009-03-01T23:30:00Z,29.6350,-93.6417,2.0,122.607007,17.46230798,-99999.0,'11111222,11111222,99999999' 
TABS,ioos:station:wmo:42051:1,2009-03-02T00:00:00Z,29.6350,-93.6417,2.0,120.5540434,16.07154317,-99999.0,'11111222,11111222,99999999' 
TABS,ioos:station:wmo:42051:1,2009-03-02T00:30:00Z,29.6350,-93.6417,2.0,113.9994565,17.28424138,-99999.0,'11111222,11111222,99999999' 
TABS,ioos:station:wmo:42051:1,2009-03-02T01:00:00Z,29.6350,-93.6417,2.0,128.7299905,19.10006544,-99999.0,'11111222,11111222,99999999' 
TABS,ioos:station:wmo:42051:1,2009-03-02T01:30:00Z,29.6350,-93.6417,2.0,123.4367415,20.7071606,-99999.0,'11111222,11111222,99999999' 
TABS,ioos:station:wmo:42051:1,2009-03-02T02:00:00Z,29.6350,-93.6417,2.0,130.5944824,18.50308353,-99999.0,'11111222,11111222,99999999' 
TABS,ioos:station:wmo:42051:1,2009-03-02T02:30:00Z,29.6350,-93.6417,2.0,140.2625247,21.5089307,-99999.0,'11111222,11111222,99999999' 
TABS,ioos:station:wmo:42051:1,2009-03-02T03:00:00Z,29.6350,-93.6417,2.0,140.3615865,19.29652041,-99999.0,'11111222,11111222,99999999' 
TABS,ioos:station:wmo:42051:1,2009-03-02T03:30:00Z,29.6350,-93.6417,2.0,148.1199529,18.87754751,-99999.0,'11111222,11111222,99999999' 
TABS,ioos:station:wmo:42051:1,2009-03-02T04:00:00Z,29.6350,-93.6417,2.0,142.2725131,18.0420204,-99999.0,'11111222,11111222,99999999' 
TABS,ioos:station:wmo:42051:1,2009-03-02T04:30:00Z,29.6350,-93.6417,2.0,141.9087761,20.92675321,-99999.0,'11111222,11111222,99999999' 
TABS,ioos:station:wmo:42051:1,2009-03-02T05:00:00Z,29.6350,-93.6417,2.0,149.8732757,21.59740725,-99999.0,'11111222,11111222,99999999' 
TABS,ioos:station:wmo:42051:1,2009-03-02T05:30:00Z,29.6350,-93.6417,2.0,106.9149799,15.26019659,-99999.0,'11111222,11111222,99999999' 
TABS,ioos:station:wmo:42051:1,2009-03-02T06:00:00Z,29.6350,-93.6417,2.0,145.7264381,12.80314415,-99999.0,'11111222,11111222,99999999' 
TABS,ioos:station:wmo:42051:1,2009-03-02T06:30:00Z,29.6350,-93.6417,2.0,144.988913,12.39252194,-99999.0,'11111222,11111222,99999999' 
TABS,ioos:station:wmo:42051:1,2009-03-02T07:00:00Z,29.6350,-93.6417,2.0,143.0058396,10.15402383,-99999.0,'11111222,11111222,99999999' 
TABS,ioos:station:wmo:42051:1,2009-03-02T07:30:00Z,29.6350,-93.6417,2.0,163.8878474,8.504028457,-99999.0,'11133222,11111222,99999999' 
TABS,ioos:station:wmo:42051:1,2009-03-02T08:00:00Z,29.6350,-93.6417,2.0,141.55406,5.017897966,-99999.0,'11133222,11111222,99999999' 
TABS,ioos:station:wmo:42051:1,2009-03-02T08:30:00Z,29.6350,-93.6417,2.0,33.48630097,1.558717421,-99999.0,'11133222,11111222,99999999' 
TABS,ioos:station:wmo:42051:1,2009-03-02T09:00:00Z,29.6350,-93.6417,2.0,343.9185961,1.155205609,-99999.0,'11133222,11111222,99999999' 
TABS,ioos:station:wmo:42051:1,2009-03-02T09:30:00Z,29.6350,-93.6417,2.0,258.5369868,5.887427282,-99999.0,'11133222,11111222,99999999' 
TABS,ioos:station:wmo:42051:1,2009-03-02T10:00:00Z,29.6350,-93.6417,2.0,272.9112519,4.135335537,-99999.0,'11133222,11111222,99999999' 
TABS,ioos:station:wmo:42051:1,2009-03-02T10:30:00Z,29.6350,-93.6417,2.0,282.1758788,5.452650732,-99999.0,'11133222,11111222,99999999' 
TABS,ioos:station:wmo:42051:1,2009-03-02T11:00:00Z,29.6350,-93.6417,2.0,267.4618207,7.227087934,-99999.0,'11133222,11111222,99999999' 
TABS,ioos:station:wmo:42051:1,2009-03-02T11:30:00Z,29.6350,-93.6417,2.0,268.9755891,10.63169789,-99999.0,'11111222,11111222,99999999' 
TABS,ioos:station:wmo:42051:1,2009-03-02T12:00:00Z,29.6350,-93.6417,2.0,264.2778545,10.23097258,-99999.0,'11111222,11111222,99999999' 
TABS,ioos:station:wmo:42051:1,2009-03-02T12:30:00Z,29.6350,-93.6417,2.0,273.6596939,13.78811082,-99999.0,'11111222,11111222,99999999' 
TABS,ioos:station:wmo:42051:1,2009-03-02T13:00:00Z,29.6350,-93.6417,2.0,273.0683382,14.20035211,-99999.0,'11111222,11111222,99999999' 
TABS,ioos:station:wmo:42051:1,2009-03-02T13:30:00Z,29.6350,-93.6417,2.0,276.6181589,13.44961338,-99999.0,'11111222,11111222,99999999' 
TABS,ioos:station:wmo:42051:1,2009-03-02T14:00:00Z,29.6350,-93.6417,2.0,262.3831349,17.35309771,-99999.0,'11111222,11111222,99999999' 
TABS,ioos:station:wmo:42051:1,2009-03-02T14:30:00Z,29.6350,-93.6417,2.0,267.5976463,17.89572295,-99999.0,'11111222,11111222,99999999' 
TABS,ioos:station:wmo:42051:1,2009-03-02T15:00:00Z,29.6350,-93.6417,2.0,260.800536,17.89008664,-99999.0,'11111222,11111222,99999999' 
TABS,ioos:station:wmo:42051:1,2009-03-02T15:30:00Z,29.6350,-93.6417,2.0,276.2479843,15.71332237,-99999.0,'11111222,11111222,99999999' 
TABS,ioos:station:wmo:42051:1,2009-03-02T16:00:00Z,29.6350,-93.6417,2.0,277.9094351,16.86037959,-99999.0,'11111222,11111222,99999999' 
TABS,ioos:station:wmo:42051:1,2009-03-02T16:30:00Z,29.6350,-93.6417,2.0,275.4119593,18.8741225,-99999.0,'11111222,11111222,99999999' 
TABS,ioos:station:wmo:42051:1,2009-03-02T17:00:00Z,29.6350,-93.6417,2.0,284.0704992,16.41238861,-99999.0,'11111222,11111222,99999999' 
TABS,ioos:station:wmo:42051:1,2009-03-02T17:30:00Z,29.6350,-93.6417,2.0,279.7581636,18.17290566,-99999.0,'11111222,11111222,99999999' 
TABS,ioos:station:wmo:42051:1,2009-03-02T18:00:00Z,29.6350,-93.6417,2.0,288.6886214,17.88285492,-99999.0,'11111222,11111222,99999999' 
TABS,ioos:station:wmo:42051:1,2009-03-02T18:30:00Z,29.6350,-93.6417,2.0,293.3647108,17.70149429,-99999.0,'11111222,11111222,99999999' 
TABS,ioos:station:wmo:42051:1,2009-03-02T19:00:00Z,29.6350,-93.6417,2.0,303.4157066,20.24678987,-99999.0,'11111222,11111222,99999999' 
TABS,ioos:station:wmo:42051:1,2009-03-02T19:30:00Z,29.6350,-93.6417,2.0,311.8733635,18.27763934,-99999.0,'11111222,11111222,99999999' 
TABS,ioos:station:wmo:42051:1,2009-03-02T20:00:00Z,29.6350,-93.6417,2.0,306.6300564,21.47018863,-99999.0,'11111222,11111222,99999999' 
TABS,ioos:station:wmo:42051:1,2009-03-02T20:30:00Z,29.6350,-93.6417,2.0,310.6221294,21.21146152,-99999.0,'11111222,11111222,99999999' 
TABS,ioos:station:wmo:42051:1,2009-03-02T21:00:00Z,29.6350,-93.6417,2.0,313.6108808,20.41310363,-99999.0,'11111222,11111222,99999999' 
TABS,ioos:station:wmo:42051:1,2009-03-02T21:30:00Z,29.6350,-93.6417,2.0,320.8618434,20.56411681,-99999.0,'11111222,11111222,99999999' 
TABS,ioos:station:wmo:42051:1,2009-03-02T22:00:00Z,29.6350,-93.6417,2.0,328.2166088,17.25795469,-99999.0,'11111222,11111222,99999999' 
TABS,ioos:station:wmo:42051:1,2009-03-02T22:30:00Z,29.6350,-93.6417,2.0,336.2678939,15.9268484,-99999.0,'11111222,11111222,99999999' 
TABS,ioos:station:wmo:42051:1,2009-03-02T23:00:00Z,29.6350,-93.6417,2.0,333.9335673,16.45361055,-99999.0,'11111222,11111222,99999999' 
TABS,ioos:station:wmo:42051:1,2009-03-02T23:30:00Z,29.6350,-93.6417,2.0,331.9606097,11.29588421,-99999.0,'11111222,11111222,99999999' 
TABS,ioos:station:wmo:42051:1,2009-03-03T00:00:00Z,29.6350,-93.6417,2.0,343.3501439,12.28508445,-99999.0,'11111222,11111222,99999999' 
TABS,ioos:station:wmo:42051:1,2009-03-03T00:30:00Z,29.6350,-93.6417,2.0,345.3135569,7.69130028,-99999.0,'11133222,11111222,99999999' 
TABS,ioos:station:wmo:42051:1,2009-03-03T01:00:00Z,29.6350,-93.6417,2.0,25.97886104,3.059101175,-99999.0,'11133222,11111222,99999999' 
TABS,ioos:station:wmo:42051:1,2009-03-03T01:30:00Z,29.6350,-93.6417,2.0,116.0476609,1.981236987,-99999.0,'11133222,11111222,99999999' 
TABS,ioos:station:wmo:42051:1,2009-03-03T02:00:00Z,29.6350,-93.6417,2.0,96.15308976,5.411173625,-99999.0,'11133222,11111222,99999999' 
TABS,ioos:station:wmo:42051:1,2009-03-03T02:30:00Z,29.6350,-93.6417,2.0,106.9796711,4.109123994,-99999.0,'11133222,11111222,99999999' 
TABS,ioos:station:wmo:42051:1,2009-03-03T03:00:00Z,29.6350,-93.6417,2.0,100.509576,5.756570159,-99999.0,'11133222,11111222,99999999' 
TABS,ioos:station:wmo:42051:1,2009-03-03T03:30:00Z,29.6350,-93.6417,2.0,121.144541,5.433102245,-99999.0,'11133222,11111222,99999999' 
TABS,ioos:station:wmo:42051:1,2009-03-03T04:00:00Z,29.6350,-93.6417,2.0,127.5199657,8.636556027,-99999.0,'11133222,11111222,99999999' 
TABS,ioos:station:wmo:42051:1,2009-03-03T04:30:00Z,29.6350,-93.6417,2.0,107.5813089,7.217118539,-99999.0,'11133222,11111222,99999999' 
TABS,ioos:station:wmo:42051:1,2009-03-03T05:00:00Z,29.6350,-93.6417,2.0,99.24440094,7.781060339,-99999.0,'11133222,11111222,99999999' 
TABS,ioos:station:wmo:42051:1,2009-03-03T05:30:00Z,29.6350,-93.6417,2.0,110.3985587,5.537237578,-99999.0,'11133222,11111222,99999999' 
TABS,ioos:station:wmo:42051:1,2009-03-03T06:00:00Z,29.6350,-93.6417,2.0,112.888194,5.09082508,-99999.0,'11133222,11111222,99999999' 
TABS,ioos:station:wmo:42051:1,2009-03-03T06:30:00Z,29.6350,-93.6417,2.0,121.5347182,3.61365466,-99999.0,'11133222,11111222,99999999' 
TABS,ioos:station:wmo:42051:1,2009-03-03T07:00:00Z,29.6350,-93.6417,2.0,106.0091977,2.465623653,-99999.0,'11133222,11111222,99999999' 
TABS,ioos:station:wmo:42051:1,2009-03-03T07:30:00Z,29.6350,-93.6417,2.0,129.6409409,4.012692363,-99999.0,'11133222,11111222,99999999' 
TABS,ioos:station:wmo:42051:1,2009-03-03T08:00:00Z,29.6350,-93.6417,2.0,162.7501419,2.293141949,-99999.0,'11133222,11111222,99999999' 
TABS,ioos:station:wmo:42051:1,2009-03-03T08:30:00Z,29.6350,-93.6417,2.0,223.1115007,4.506717209,-99999.0,'11133222,11111222,99999999' 
TABS,ioos:station:wmo:42051:1,2009-03-03T09:00:00Z,29.6350,-93.6417,2.0,288.9167913,5.644864923,-99999.0,'11133222,11111222,99999999' 
TABS,ioos:station:wmo:42051:1,2009-03-03T09:30:00Z,29.6350,-93.6417,2.0,279.165053,7.910986032,-99999.0,'11133222,11111222,99999999' 
TABS,ioos:station:wmo:42051:1,2009-03-03T10:00:00Z,29.6350,-93.6417,2.0,266.4921432,11.93235098,-99999.0,'11111222,11111222,99999999' 
TABS,ioos:station:wmo:42051:1,2009-03-03T10:30:00Z,29.6350,-93.6417,2.0,279.9004179,15.06431877,-99999.0,'11111222,11111222,99999999' 
TABS,ioos:station:wmo:42051:1,2009-03-03T11:00:00Z,29.6350,-93.6417,2.0,280.8729641,20.03973054,-99999.0,'11111222,11111222,99999999' 
TABS,ioos:station:wmo:42051:1,2009-03-03T11:30:00Z,29.6350,-93.6417,2.0,274.3881293,19.99861245,-99999.0,'11111222,11111222,99999999' 
TABS,ioos:station:wmo:42051:1,2009-03-03T12:00:00Z,29.6350,-93.6417,2.0,284.5516616,23.20432072,-99999.0,'11111222,11111222,99999999' 
TABS,ioos:station:wmo:42051:1,2009-03-03T12:30:00Z,29.6350,-93.6417,2.0,279.1084479,24.19506148,-99999.0,'11111222,11111222,99999999' 
TABS,ioos:station:wmo:42051:1,2009-03-03T13:00:00Z,29.6350,-93.6417,2.0,284.5999133,29.35793079,-99999.0,'11111222,11111222,99999999' 
TABS,ioos:station:wmo:42051:1,2009-03-03T13:30:00Z,29.6350,-93.6417,2.0,285.0633438,26.93548032,-99999.0,'11111222,11111222,99999999' 
TABS,ioos:station:wmo:42051:1,2009-03-03T14:00:00Z,29.6350,-93.6417,2.0,277.7664962,27.82521339,-99999.0,'11111222,11111222,99999999' 
TABS,ioos:station:wmo:42051:1,2009-03-03T14:30:00Z,29.6350,-93.6417,2.0,275.1233161,30.46168085,-99999.0,'11111222,11111222,99999999' 
TABS,ioos:station:wmo:42051:1,2009-03-03T15:00:00Z,29.6350,-93.6417,2.0,279.0313532,31.66249832,-99999.0,'11111222,11111222,99999999' 
TABS,ioos:station:wmo:42051:1,2009-03-03T15:30:00Z,29.6350,-93.6417,2.0,280.5345557,31.28731372,-99999.0,'11111222,11111222,99999999' 
TABS,ioos:station:wmo:42051:1,2009-03-03T16:00:00Z,29.6350,-93.6417,2.0,277.8911618,29.79208284,-99999.0,'11111222,11111222,99999999' 
TABS,ioos:station:wmo:42051:1,2009-03-03T16:30:00Z,29.6350,-93.6417,2.0,277.771497,30.46982934,-99999.0,'11111222,11111222,99999999' 
TABS,ioos:station:wmo:42051:1,2009-03-03T17:00:00Z,29.6350,-93.6417,2.0,276.4238763,27.35170927,-99999.0,'11111222,11111222,99999999' 
TABS,ioos:station:wmo:42051:1,2009-03-03T17:30:00Z,29.6350,-93.6417,2.0,275.9540177,28.15184541,-99999.0,'11111222,11111222,99999999' 
TABS,ioos:station:wmo:42051:1,2009-03-03T18:00:00Z,29.6350,-93.6417,2.0,275.7841218,27.28891716,-99999.0,'11111222,11111222,99999999' 
TABS,ioos:station:wmo:42051:1,2009-03-03T18:30:00Z,29.6350,-93.6417,2.0,270.4362313,19.72057048,-99999.0,'11111222,11111222,99999999' 
TABS,ioos:station:wmo:42051:1,2009-03-03T19:00:00Z,29.6350,-93.6417,2.0,271.2487967,20.65490257,-99999.0,'11111222,11111222,99999999' 
TABS,ioos:station:wmo:42051:1,2009-03-03T19:30:00Z,29.6350,-93.6417,2.0,260.2692407,23.19366293,-99999.0,'11111222,11111222,99999999' 
TABS,ioos:station:wmo:42051:1,2009-03-03T20:00:00Z,29.6350,-93.6417,2.0,260.6797635,22.47669905,-99999.0,'11111222,11111222,99999999' 
TABS,ioos:station:wmo:42051:1,2009-03-03T20:30:00Z,29.6350,-93.6417,2.0,263.5040396,22.80640261,-99999.0,'11111222,11111222,99999999' 
TABS,ioos:station:wmo:42051:1,2009-03-03T21:00:00Z,29.6350,-93.6417,2.0,262.5340875,24.62877179,-99999.0,'11111222,11111222,99999999' 
TABS,ioos:station:wmo:42051:1,2009-03-03T21:30:00Z,29.6350,-93.6417,2.0,264.4011891,23.88392346,-99999.0,'11111222,11111222,99999999' 
TABS,ioos:station:wmo:42051:1,2009-03-03T22:00:00Z,29.6350,-93.6417,2.0,264.6788707,27.9303455,-99999.0,'11111222,11111222,99999999' 
TABS,ioos:station:wmo:42051:1,2009-03-03T22:30:00Z,29.6350,-93.6417,2.0,258.8496419,25.28731302,-99999.0,'11111222,11111222,99999999' 
TABS,ioos:station:wmo:42051:1,2009-03-03T23:00:00Z,29.6350,-93.6417,2.0,261.1719125,26.71647432,-99999.0,'11111222,11111222,99999999' 
TABS,ioos:station:wmo:42051:1,2009-03-03T23:30:00Z,29.6350,-93.6417,2.0,265.0127923,24.73362286,-99999.0,'11111222,11111222,99999999' 
TABS,ioos:station:wmo:42051:1,2009-03-04T00:00:00Z,29.6350,-93.6417,2.0,257.2135853,29.23492774,-99999.0,'11111222,11111222,99999999' 
TABS,ioos:station:wmo:42051:1,2009-03-04T00:30:00Z,29.6350,-93.6417,2.0,258.7852055,28.22899573,-99999.0,'11111222,11111222,99999999' 
TABS,ioos:station:wmo:42051:1,2009-03-04T01:00:00Z,29.6350,-93.6417,2.0,262.0177025,26.78953714,-99999.0,'11111222,11111222,99999999' 
TABS,ioos:station:wmo:42051:1,2009-03-04T01:30:00Z,29.6350,-93.6417,2.0,256.2669111,24.26360443,-99999.0,'11111222,11111222,99999999' 
TABS,ioos:station:wmo:42051:1,2009-03-04T02:00:00Z,29.6350,-93.6417,2.0,253.9022979,22.79369211,-99999.0,'11111222,11111222,99999999' 
TABS,ioos:station:wmo:42051:1,2009-03-04T02:30:00Z,29.6350,-93.6417,2.0,255.4802456,20.42222564,-99999.0,'11111222,11111222,99999999' 
TABS,ioos:station:wmo:42051:1,2009-03-04T03:00:00Z,29.6350,-93.6417,2.0,239.9839409,20.73015678,-99999.0,'11111222,11111222,99999999' 
TABS,ioos:station:wmo:42051:1,2009-03-04T03:30:00Z,29.6350,-93.6417,2.0,245.4258925,22.65163129,-99999.0,'11111222,11111222,99999999' 
TABS,ioos:station:wmo:42051:1,2009-03-04T04:00:00Z,29.6350,-93.6417,2.0,247.7358041,21.168101,-99999.0,'11111222,11111222,99999999' 
TABS,ioos:station:wmo:42051:1,2009-03-04T04:30:00Z,29.6350,-93.6417,2.0,247.7817154,23.24595664,-99999.0,'11111222,11111222,99999999' 
TABS,ioos:station:wmo:42051:1,2009-03-04T05:00:00Z,29.6350,-93.6417,2.0,249.1825238,23.88951653,-99999.0,'11111222,11111222,99999999' 
TABS,ioos:station:wmo:42051:1,2009-03-04T05:30:00Z,29.6350,-93.6417,2.0,240.2692946,24.45965045,-99999.0,'11111222,11111222,99999999' 
TABS,ioos:station:wmo:42051:1,2009-03-04T06:00:00Z,29.6350,-93.6417,2.0,249.4165868,22.35720242,-99999.0,'11111222,11111222,99999999' 
TABS,ioos:station:wmo:42051:1,2009-03-04T06:30:00Z,29.6350,-93.6417,2.0,236.9419951,24.87704564,-99999.0,'11111222,11111222,99999999' 
TABS,ioos:station:wmo:42051:1,2009-03-04T07:00:00Z,29.6350,-93.6417,2.0,235.6459639,18.67800846,-99999.0,'11111222,11111222,99999999' 
TABS,ioos:station:wmo:42051:1,2009-03-04T07:30:00Z,29.6350,-93.6417,2.0,230.8148762,17.72646609,-99999.0,'11111222,11111222,99999999' 
TABS,ioos:station:wmo:42051:1,2009-03-04T08:00:00Z,29.6350,-93.6417,2.0,233.3864986,12.94412994,-99999.0,'11111222,11111222,99999999' 
TABS,ioos:station:wmo:42051:1,2009-03-04T08:30:00Z,29.6350,-93.6417,2.0,244.9510446,14.195059,-99999.0,'11111222,11111222,99999999' 
TABS,ioos:station:wmo:42051:1,2009-03-04T09:00:00Z,29.6350,-93.6417,2.0,240.931195,16.07478149,-99999.0,'11111222,11111222,99999999' 
TABS,ioos:station:wmo:42051:1,2009-03-04T09:30:00Z,29.6350,-93.6417,2.0,251.1244301,14.40459996,-99999.0,'11111222,11111222,99999999' 
TABS,ioos:station:wmo:42051:1,2009-03-04T10:00:00Z,29.6350,-93.6417,2.0,255.6025126,15.40374305,-99999.0,'11111222,11111222,99999999' 
TABS,ioos:station:wmo:42051:1,2009-03-04T10:30:00Z,29.6350,-93.6417,2.0,257.4018805,16.2307486,-99999.0,'11111222,11111222,99999999' 
TABS,ioos:station:wmo:42051:1,2009-03-04T11:00:00Z,29.6350,-93.6417,2.0,251.0808857,18.35135145,-99999.0,'11111222,11111222,99999999' 
TABS,ioos:station:wmo:42051:1,2009-03-04T11:30:00Z,29.6350,-93.6417,2.0,260.9513588,16.1509783,-99999.0,'11111222,11111222,99999999' 
TABS,ioos:station:wmo:42051:1,2009-03-04T12:00:00Z,29.6350,-93.6417,2.0,255.4224401,18.7536903,-99999.0,'11111222,11111222,99999999' 
TABS,ioos:station:wmo:42051:1,2009-03-04T12:30:00Z,29.6350,-93.6417,2.0,251.0370599,15.11000331,-99999.0,'11111222,11111222,99999999' 
TABS,ioos:station:wmo:42051:1,2009-03-04T13:00:00Z,29.6350,-93.6417,2.0,255.6033123,18.13959757,-99999.0,'11111222,11111222,99999999' 
TABS,ioos:station:wmo:42051:1,2009-03-04T13:30:00Z,29.6350,-93.6417,2.0,253.4621369,22.73026617,-99999.0,'11111222,11111222,99999999' 
TABS,ioos:station:wmo:42051:1,2009-03-04T14:00:00Z,29.6350,-93.6417,2.0,259.1575395,20.41440913,-99999.0,'11111222,11111222,99999999' 
TABS,ioos:station:wmo:42051:1,2009-03-04T14:30:00Z,29.6350,-93.6417,2.0,259.4713552,21.56301463,-99999.0,'11111222,11111222,99999999' 
TABS,ioos:station:wmo:42051:1,2009-03-04T15:00:00Z,29.6350,-93.6417,2.0,254.1045033,23.47767663,-99999.0,'11111222,11111222,99999999' 
TABS,ioos:station:wmo:42051:1,2009-03-04T15:30:00Z,29.6350,-93.6417,2.0,257.8634068,19.31160273,-99999.0,'11111222,11111222,99999999' 
TABS,ioos:station:wmo:42051:1,2009-03-04T16:00:00Z,29.6350,-93.6417,2.0,258.2284104,24.11718267,-99999.0,'11111222,11111222,99999999' 